#timestamp,LO_Frequency,Hit,StdDev 
1646964015.5,286046999.7,N
1646964035.3,286047002.1,N
1646964055.1,286047002.2,N
1646964075.9,286047000.8,N
1646964095.7,286047000.1,N
1646964115.5,286047004.2,N
1646964135.4,286047004.1,N
1646964155.2,286047003.6,N
1646964175.1,286047004.1,N
1646964176.0,286047004.1,N
1646964195.8,286047001.6,N
1646964215.6,286047002.1,N
1646964235.5,286047001.9,N
1646964255.3,286047002.0,N
1646964275.2,286047004.3,Y
1646964295.9,286047000.4,P
1646964315.7,286046999.9,N
1646964335.6,286047000.3,N
1646964355.4,286047002.6,Y
1646964375.2,286046999.9,P
1646964395.1,286047000.3,N
1646964396.0,286047000.3,N
1646964415.8,286047000.5,N
1646964435.7,286047001.1,Y
1646964455.5,286046998.5,P
1646964475.4,286047000.1,N
1646964495.2,286047001.4,N
1646964515.0,286047003.6,Y
1646964515.9,286047003.6,P
1646964535.8,286047004.4,N
1646964555.6,286047001.9,N
1646964575.4,286047002.6,N
1646964595.3,286046999.9,N
1646964615.1,286046999.7,N
1646964635.9,286047000.6,N
1646964655.7,286046998.4,N
1646964675.5,286046999.8,N
1646964695.4,286047000.3,N
1646964715.2,286047000.1,N
1646964735.0,286047004.1,N
1646964735.9,286047004.1,N
1646964755.8,286047003.6,N
1646964775.6,286047002.9,N
1646964795.5,286047005.6,N
1646964815.3,286047004.8,N
1646964835.1,286047004.0,N
1646964855.9,286047001.9,N
1646964875.7,286047005.5,N
1646964895.5,286047001.8,N
1646964915.4,286047001.4,N
1646964935.2,286047003.7,N
1646964955.1,286047004.2,N
1646964956.0,286047004.2,N
1646964975.8,286047002.2,N
1646964995.6,286047000.3,N
1646965015.5,286047000.0,N
1646965035.3,286046999.9,N
1646965055.1,286047000.1,N
1646965075.9,286047000.7,N
1646965095.7,286047000.2,N
1646965115.6,286047001.8,N
1646965135.4,286047004.0,N
1646965155.2,286047001.8,N
1646965175.1,286047001.8,N
1646965176.0,286047001.8,N
1646965195.8,286047004.2,N
1646965215.7,286047001.8,N
1646965235.5,286047002.4,N
1646965255.3,286047002.2,N
1646965275.2,286047002.0,N
1646965295.9,286047001.8,N
1646965315.7,286047001.8,N
1646965335.6,286047003.1,N
1646965355.4,286047003.0,N
1646965375.3,286047005.9,Y
1646965395.1,286047004.0,P
1646965396.0,286047004.0,P
1646965415.8,286046999.7,N
1646965435.7,286047002.1,N
1646965455.5,286047004.2,N
1646965475.3,286047001.4,N
1646965495.2,286047001.3,N
1646965515.0,286047002.2,N
1646965515.9,286047002.2,N
1646965535.8,286047002.8,N
1646965555.6,286047000.0,N
1646965575.4,286047002.8,N
1646965595.3,286046999.8,N
1646965615.1,286047002.8,N
1646965635.8,286047004.0,N
1646965655.7,286047003.3,N
1646965675.5,286047004.4,Y
1646965695.4,286046998.2,P
1646965715.2,286046996.8,N
1646965735.0,286046996.7,N
1646965735.9,286046996.7,N
1646965755.8,286046996.5,N
1646965775.6,286046998.7,N
1646965795.5,286046998.2,N
1646965815.3,286046996.8,N
1646965835.1,286046998.1,N
1646965855.9,286046998.2,N
1646965875.7,286046998.2,N
1646965895.5,286047000.9,N
1646965915.4,286047002.1,N
1646965935.2,286047002.7,N
1646965955.1,286047000.2,N
1646965956.0,286047000.2,N
1646965975.8,286047000.0,N
1646965995.6,286046999.8,N
1646966015.5,286047003.9,N
1646966035.3,286047002.5,N
1646966055.1,286047000.2,N
1646966075.9,286047000.1,N
1646966095.7,286047002.5,N
1646966115.6,286047002.6,N
1646966135.4,286047004.0,N
1646966155.2,286047001.9,N
1646966175.1,286047001.6,N
1646966176.0,286047001.6,N
1646966195.8,286047002.2,N
1646966215.6,286047002.5,N
1646966235.5,286047002.1,N
1646966255.3,286047001.9,N
1646966275.2,286047002.3,N
1646966295.9,286047002.0,N
1646966315.7,286047001.3,N
1646966335.6,286047001.3,N
1646966355.4,286047003.1,N
1646966375.2,286047005.1,N
1646966395.1,286047006.0,Y
1646966396.0,286047006.0,P
1646966415.8,286047002.5,N
1646966435.7,286047000.0,N
1646966455.5,286047000.8,N
1646966475.3,286047000.3,N
1646966495.2,286047002.8,N
1646966515.0,286047002.2,N
1646966515.9,286047002.2,N
1646966535.8,286047000.7,N
1646966555.6,286046999.3,N
1646966575.4,286046998.9,N
1646966595.3,286046998.7,N
1646966615.1,286046998.4,N
1646966635.8,286046999.2,N
1646966655.7,286047000.3,N
1646966675.5,286047000.8,N
1646966695.4,286046996.5,N
1646966715.2,286046998.4,N
1646966735.0,286046998.1,N
1646966735.9,286046998.1,N
1646966755.8,286046998.3,N
1646966775.6,286046999.7,N
1646966795.4,286047002.2,N
1646966815.3,286047000.2,N
1646966835.1,286047002.7,N
1646966855.9,286047002.8,N
1646966875.7,286047002.2,N
1646966895.5,286047002.2,N
1646966915.4,286047002.6,N
1646966935.2,286046999.7,N
1646966955.1,286047000.3,N
1646966956.0,286047000.3,N
1646966975.8,286047002.7,N
1646966995.6,286047001.9,N
1646967015.5,286047002.5,N
1646967035.3,286047002.9,N
1646967055.1,286047005.1,N
1646967075.9,286047003.0,N
1646967095.7,286047005.5,N
1646967115.6,286047001.4,N
1646967135.4,286047004.0,N
1646967155.2,286047002.6,N
1646967175.1,286047000.7,N
1646967176.0,286047000.7,N
1646967195.8,286047000.6,N
1646967215.7,286047000.4,N
1646967235.5,286047002.2,N
1646967255.3,286047004.1,N
1646967275.2,286047004.1,N
1646967295.0,286047001.4,N
1646967295.9,286047001.4,N
1646967315.7,286047004.2,N
1646967335.6,286047003.8,N
1646967355.4,286047004.2,N
1646967375.3,286047003.6,N
1646967395.1,286047003.5,N
1646967396.0,286047003.5,N
1646967415.8,286047004.7,Y
1646967435.7,286047004.2,P
1646967455.5,286047005.9,P
1646967475.4,286047002.1,N
1646967495.2,286047001.9,N
1646967515.0,286047003.7,N
1646967515.9,286047003.7,N
1646967535.8,286047004.1,Y
1646967585.6,286046997.3,E
1646967595.6,286046998.4,N
